Weather in Krasnopillia

Ukraine / Sumi District     50°46′12″N   35°16′33″E
temp.,
°C
wind,
m/s
gust,
m/s
humid.,
%
clouds,
%
prec.,
mm/h
press.,
hPa
HPBL,
m
18 october, mon
mon1800:00+5nw368523 0.0 1018121
03:00+5wnw347359 0.0 101856
06:00+4wnw347699 0.0 101864
09:00+6w476599 0.0 1018257
12:00+10w574989 0.0 10181114
15:00+10wnw5650100 0.0 10171377
18:00+8wnw4762100 0.0 1017404
21:00+7w3769100 0.0 1017365
19 october, tue
tue1900:00+7w3670100 0.0 1017898
03:00+5nnw6790100 1.4 1017804
06:00+4wnw488736 0.6 1018447
09:00+4nw510770 0.6 1020466
12:00+7nw78585 0.0 10211143
15:00+8nw795388 0.0 10201680
18:00+6nw61059100 0.1 10221221
21:00+4nw5117011 0.2 1023529
20 october, wed
wed2000:00+2wnw388249 0.0 1024217
03:00+1nw4108078 0.0 1025309
06:000nw388553 0.0 1027195
09:00+1nw357041 0.0 1027228
12:00+6w2344100 0.0 1027733
15:00+8sw3440100 0.0 1026887
18:00+7ssw385297 0.0 1025396
21:00+7ssw51252100 0.0 1023411
21 october, thu
thu2100:00+8ssw71541100 0.0 1021505
03:00+7ssw71670100 0.8 1019444
06:00+8sw71677100 0.0 1018547
09:00+9sw71583100 0.0 1017502
12:00+13sw91368100 0.0 1016654
15:00+15sw8145879 0.0 1014853
18:00+13sw81561100 0.0 1013756
21:00+12sw81662100 0.0 1012696
22 october, fri
fri2200:00+10ssw8167172 0.0 1012533
03:00+9sw7158098 0.0 1011495
06:00+9sw61390100 0.0 1011412
09:00+9sw51184100 0.0 1012334
12:00+14wsw5860100 0.0 1012594
15:00+16wsw5753100 0.0 1012872
18:00+13sw3368100 0.0 101330
21:00+11ssw337388 0.0 101333